W2JV-2 Weather Reports


Display with metric or nautical units.
time (UTC)temp
F
wind
direction
speed
MPH
gust
MPH
rain 1hr
in
rain 24hr
in
rain mn
in
humidity
%
barometer
mb
20260510151504 60 274 0.0 2.0 0.00 0.19 0.00 93 1013.5
20260510151004 60 242 0.0 2.0 0.00 0.19 0.00 92 1013.5
20260510150504 60 228 0.0 1.0 0.00 0.19 0.00 93 1013.5
20260510145503 59 228 1.0 3.0 0.00 0.19 0.00 93 1013.5
20260510145002 59 175 1.0 2.0 0.00 0.19 0.00 93 1013.5
20260510144504 59 219 1.0 2.0 0.00 0.19 0.00 92 1013.4
20260510144003 59 249 1.0 3.0 0.00 0.19 0.00 92 1013.3
20260510143503 59 184 1.0 2.0 0.00 0.19 0.00 92 1013.1
20260510143004 59 253 1.0 2.0 0.00 0.19 0.00 93 1013.1
20260510142003 58 135 1.0 2.0 0.00 0.19 0.00 92 1013.0
20260510141003 58 186 0.0 1.0 0.00 0.19 0.00 92 1013.1
20260510140002 58 230 0.0 0.0 0.00 0.19 0.00 92 1013.1
20260510135502 57 251 0.0 0.0 0.00 0.19 0.00 92 1013.1
20260510135002 57 215 0.0 0.0 0.00 0.19 0.00 92 1012.9
20260510134002 57 215 0.0 0.0 0.00 0.19 0.00 92 1013.0
20260510133504 57 187 0.0 0.0 0.00 0.19 0.00 93 1012.8
20260510133003 57 215 0.0 0.0 0.00 0.19 0.00 92 1012.8
20260510132502 57 217 0.0 0.0 0.00 0.19 0.00 92 1012.8
20260510132002 57 217 0.0 0.0 0.00 0.19 0.00 92 1012.9
20260510131503 57 217 0.0 0.0 0.00 0.19 0.00 92 1012.9
20260510131004 56 217 0.0 1.0 0.00 0.19 0.00 92 1012.9
20260510130503 56 255 0.0 2.0 0.00 0.19 0.00 92 1012.8
20260510125503 56 228 0.0 0.0 0.00 0.19 0.00 92 1012.6
20260510125003 56 227 0.0 1.0 0.00 0.19 0.00 92 1012.6
20260510124002 55 230 0.0 1.0 0.00 0.19 0.00 92 1012.6
20260510123502 55 257 0.0 2.0 0.00 0.19 0.00 92 1012.5
20260510123003 55 257 0.0 2.0 0.00 0.19 0.00 92 1012.5
20260510122503 55 182 1.0 3.0 0.00 0.19 0.00 92 1012.4
20260510121503 55 208 1.0 3.0 0.00 0.19 0.00 92 1012.0
20260510121003 55 236 0.0 1.0 0.00 0.19 0.00 92 1012.0
20260510120504 55 182 0.0 2.0 0.00 0.19 0.00 92 1012.1
20260510115503 54 235 1.0 1.0 0.00 0.19 0.00 92 1012.3
20260510115002 54 298 0.0 2.0 0.00 0.19 0.00 92 1012.2
20260510114502 54 269 1.0 3.0 0.00 0.19 0.00 92 1012.1
20260510114004 54 218 0.0 0.0 0.00 0.19 0.00 92 1011.9
20260510113504 54 196 0.0 0.0 0.00 0.19 0.00 92 1011.8
20260510113003 54 215 0.0 0.0 0.00 0.19 0.00 92 1011.9
20260510112504 54 196 0.0 0.0 0.00 0.19 0.00 92 1011.9
20260510112004 54 195 0.0 0.0 0.00 0.19 0.00 92 1011.9
20260510111502 54 315 0.0 0.0 0.00 0.19 0.00 92 1011.9
20260510111002 54 314 0.0 0.0 0.00 0.19 0.00 92 1012.0
20260510110502 53 314 0.0 0.0 0.00 0.19 0.00 92 1012.1
20260510110002 54 314 0.0 0.0 0.00 0.19 0.00 92 1012.1
20260510105502 54 315 0.0 0.0 0.00 0.19 0.00 92 1012.0
20260510105003 53 242 0.0 1.0 0.00 0.19 0.00 92 1012.0
20260510104502 53 248 0.0 2.0 0.00 0.19 0.00 92 1012.0
20260510104004 53 256 0.0 2.0 0.00 0.19 0.00 92 1011.9
20260510103002 53 296 0.0 1.0 0.00 0.19 0.00 92 1011.9
20260510102002 53 321 0.0 1.0 0.00 0.19 0.00 92 1012.0
20260510101502 53 321 0.0 0.0 0.00 0.19 0.00 92 1012.1
20260510101004 53 321 0.0 1.0 0.00 0.19 0.00 92 1012.1
20260510100502 53 321 0.0 1.0 0.00 0.19 0.00 92 1012.1
20260510100003 53 321 0.0 1.0 0.00 0.19 0.00 92 1012.2
20260510095502 53 322 0.0 2.0 0.00 0.19 0.00 92 1012.2
20260510095003 53 35 0.0 1.0 0.00 0.19 0.00 92 1012.2
20260510094503 53 35 0.0 2.0 0.00 0.19 0.00 92 1012.2
20260510094003 53 36 0.0 2.0 0.00 0.19 0.00 92 1012.3
20260510093503 53 359 0.0 2.0 0.00 0.19 0.00 92 1012.3
20260510093003 53 357 0.0 2.0 0.00 0.19 0.00 92 1012.3
20260510092503 53 342 0.0 2.0 0.00 0.19 0.00 92 1012.3
20260510092003 53 16 1.0 3.0 0.00 0.19 0.00 92 1012.1
20260510091502 54 350 1.0 3.0 0.00 0.19 0.00 92 1012.2
20260510090003 54 353 1.0 2.0 0.00 0.19 0.00 92 1012.1
20260510085502 54 348 0.0 0.0 0.00 0.19 0.00 92 1011.5
20260510085003 54 348 0.0 0.0 0.00 0.19 0.00 92 1011.4
20260510084502 54 348 0.0 0.0 0.00 0.19 0.00 92 1011.4
20260510083503 54 5 0.0 0.0 0.00 0.19 0.00 92 1011.3
20260510083003 54 5 0.0 0.0 0.00 0.19 0.00 92 1011.4
20260510082503 54 5 0.0 0.0 0.00 0.19 0.00 92 1011.4
20260510082003 54 5 0.0 0.0 0.00 0.19 0.00 92 1011.5
20260510081504 54 5 0.0 0.0 0.00 0.19 0.00 92 1011.4
20260510081004 54 5 0.0 0.0 0.00 0.19 0.00 92 1011.3
20260510080502 54 5 0.0 0.0 0.00 0.19 0.00 92 1011.3
20260510080004 54 5 0.0 0.0 0.00 0.19 0.00 92 1011.3
20260510075503 54 5 0.0 0.0 0.00 0.19 0.00 92 1011.2
20260510075003 54 5 0.0 0.0 0.00 0.19 0.00 92 1011.2
20260510074503 54 5 0.0 0.0 0.00 0.19 0.00 92 1011.3
20260510074002 54 5 0.0 0.0 0.00 0.19 0.00 92 1011.4
20260510073003 54 5 0.0 0.0 0.00 0.19 0.00 92 1011.4
20260510072503 55 5 0.0 0.0 0.00 0.19 0.00 92 1011.4
20260510071502 55 168 0.0 0.0 0.00 0.19 0.00 92 1011.3
20260510071003 55 168 0.0 0.0 0.00 0.19 0.00 92 1011.2
20260510070003 55 168 0.0 0.0 0.00 0.19 0.00 92 1011.0
20260510065503 55 168 0.0 0.0 0.00 0.19 0.00 92 1010.9
20260510064502 55 168 0.0 0.0 0.00 0.19 0.00 92 1010.9
20260510063503 55 168 0.0 0.0 0.00 0.19 0.00 92 1010.9
20260510063004 55 168 0.0 0.0 0.00 0.19 0.00 92 1010.9
20260510062003 55 168 0.0 0.0 0.00 0.19 0.00 92 1010.9
20260510061503 55 168 0.0 0.0 0.00 0.19 0.00 92 1010.9
20260510061004 55 168 0.0 0.0 0.00 0.19 0.00 92 1010.9
20260510060502 54 168 0.0 0.0 0.00 0.19 0.00 92 1010.8
20260510060002 55 168 0.0 0.0 0.00 0.19 0.00 92 1010.9
20260510055502 55 168 0.0 0.0 0.00 0.19 0.00 92 1010.9
20260510055003 55 219 0.0 0.0 0.00 0.19 0.00 92 1011.0
20260510054503 55 219 0.0 0.0 0.00 0.19 0.00 92 1011.1
20260510054003 55 219 0.0 0.0 0.00 0.19 0.00 92 1011.1
20260510053503 55 219 0.0 0.0 0.00 0.19 0.00 92 1011.1
20260510052503 55 219 0.0 0.0 0.00 0.19 0.00 92 1011.1
20260510052003 55 219 0.0 0.0 0.00 0.19 0.00 92 1011.1
20260510051503 55 219 0.0 0.0 0.00 0.19 0.00 92 1011.1
20260510051002 55 219 0.0 0.0 0.00 0.19 0.00 92 1011.1
20260510050502 54 219 0.0 0.0 0.00 0.19 0.00 91 1011.2
20260510050003 54 219 0.0 0.0 0.00 0.19 0.00 91 1011.2
20260510045502 54 219 0.0 0.0 0.00 0.19 0.00 91 1011.3
20260510045003 54 219 0.0 0.0 0.00 0.19 0.00 91 1011.3
20260510044503 54 219 0.0 0.0 0.00 0.19 0.00 91 1011.3
20260510044003 54 238 0.0 0.0 0.00 0.19 0.00 91 1011.2
20260510043503 54 235 0.0 0.0 0.00 0.19 0.00 91 1011.2
20260510042004 54 235 0.0 0.0 0.00 0.19 0.00 91 1011.1
20260510041502 54 249 0.0 0.0 0.00 0.19 0.00 91 1011.0
20260510041003 54 249 0.0 0.0 0.00 0.19 0.00 91 1010.9
20260510035503 54 249 0.0 0.0 0.00 0.19 0.19 91 1010.7
20260510035003 54 182 0.0 2.0 0.00 0.19 0.19 91 1010.8
20260510034503 54 199 0.0 0.0 0.00 0.19 0.19 91 1010.8
20260510034002 54 199 0.0 0.0 0.00 0.19 0.19 91 1010.7
20260510033502 54 205 0.0 0.0 0.00 0.19 0.19 91 1010.8
20260510032004 54 230 0.0 0.0 0.00 0.19 0.19 91 1010.9
20260510031503 55 230 0.0 2.0 0.00 0.19 0.19 91 1011.0
20260510031003 55 233 0.0 3.0 0.00 0.19 0.19 91 1010.9
20260510030003 55 194 0.0 0.0 0.00 0.19 0.19 91 1010.8
20260510025503 55 201 0.0 0.0 0.00 0.19 0.19 91 1010.8
20260510024504 55 201 0.0 0.0 0.00 0.19 0.19 91 1010.8
20260510024003 55 201 0.0 0.0 0.00 0.19 0.19 91 1010.8
20260510023503 55 201 0.0 0.0 0.00 0.19 0.19 91 1010.8
20260510023004 55 201 0.0 0.0 0.00 0.19 0.19 91 1010.8
20260510022503 55 201 0.0 1.0 0.00 0.19 0.19 91 1010.8
20260510022003 55 192 1.0 1.0 0.00 0.19 0.19 91 1010.8
20260510021502 55 167 0.0 2.0 0.00 0.19 0.19 91 1010.8
20260510021004 55 201 0.0 3.0 0.00 0.19 0.19 91 1010.8
20260510020503 55 177 0.0 2.0 0.00 0.19 0.19 91 1010.8
20260510020002 55 160 0.0 2.0 0.00 0.19 0.19 91 1010.8
20260510015504 55 213 0.0 2.0 0.00 0.19 0.19 91 1010.8
20260510015003 55 149 1.0 3.0 0.00 0.19 0.19 90 1010.7
20260510014503 55 242 0.0 3.0 0.00 0.19 0.19 90 1010.8
20260510014004 55 167 0.0 3.0 0.00 0.19 0.19 90 1010.7
20260510013503 55 192 0.0 3.0 0.00 0.19 0.19 90 1010.7
20260510013003 55 190 0.0 0.0 0.00 0.19 0.19 90 1010.7
20260510012504 54 168 0.0 0.0 0.00 0.19 0.19 90 1010.6
20260510012004 54 168 0.0 0.0 0.00 0.19 0.19 90 1010.7
20260510011503 55 167 0.0 0.0 0.00 0.19 0.19 90 1010.6
20260510010503 55 192 0.0 0.0 0.00 0.19 0.19 90 1010.5
20260510010004 55 182 0.0 0.0 0.00 0.19 0.19 90 1010.6
20260510005503 55 231 0.0 0.0 0.00 0.19 0.19 90 1010.5
20260510005003 55 156 0.0 0.0 0.00 0.19 0.19 90 1010.5
20260510004503 55 182 0.0 0.0 0.00 0.19 0.19 90 1010.4
20260510003502 56 182 0.0 0.0 0.00 0.19 0.19 90 1010.3
20260510003003 56 182 0.0 0.0 0.01 0.19 0.19 90 1010.4
20260510001503 56 154 0.0 2.0 0.03 0.19 0.19 90 1010.1
20260510001003 56 124 0.0 0.0 0.04 0.19 0.19 90 1010.1
20260510000003 56 115 0.0 0.0 0.07 0.19 0.19 90 1010.1
20260509235503 56 115 0.0 0.0 0.08 0.19 0.19 90 1010.1
20260509235004 56 115 0.0 1.0 0.09 0.19 0.19 90 1010.1
20260509234003 56 115 0.0 2.0 0.09 0.19 0.19 90 1010.1
20260509233503 56 194 1.0 3.0 0.10 0.19 0.19 90 1010.2
20260509232003 56 207 0.0 2.0 0.08 0.17 0.17 89 1010.6
20260509231503 56 190 1.0 3.0 0.07 0.16 0.16 89 1010.5
20260509231004 56 160 1.0 2.0 0.06 0.15 0.15 89 1010.2
20260509225503 57 204 1.0 2.0 0.02 0.11 0.11 89 1011.1
20260509225003 57 238 0.0 0.0 0.01 0.10 0.10 89 1011.3
20260509224503 57 245 0.0 0.0 0.01 0.10 0.10 89 1011.0
20260509224004 57 228 0.0 0.0 0.01 0.10 0.10 89 1010.8
20260509223503 57 228 0.0 0.0 0.00 0.09 0.09 88 1010.7
20260509223003 57 222 1.0 2.0 0.00 0.09 0.09 88 1010.8
20260509222504 57 216 0.0 0.0 0.00 0.09 0.09 88 1010.9
20260509222003 57 240 0.0 0.0 0.00 0.09 0.09 88 1010.9
20260509220003 56 241 1.0 3.0 0.01 0.09 0.09 87 1010.9
20260509215004 56 226 1.0 3.0 0.01 0.09 0.09 86 1011.1
20260509214502 56 229 1.0 3.0 0.01 0.09 0.09 85 1011.2
20260509213502 56 164 1.0 3.0 0.01 0.09 0.09 84 1011.2
20260509213003 56 234 0.0 3.0 0.01 0.09 0.09 84 1011.3
20260509212504 56 233 0.0 2.0 0.01 0.09 0.09 84 1011.2
20260509212003 56 223 1.0 3.0 0.01 0.09 0.09 84 1011.2
20260509211002 57 249 1.0 5.0 0.02 0.09 0.09 83 1011.3
20260509210503 57 220 0.0 3.0 0.01 0.08 0.08 84 1011.2
20260509210003 57 187 1.0 3.0 0.02 0.08 0.08 83 1011.3
20260509205504 57 186 1.0 3.0 0.02 0.08 0.08 83 1011.2
20260509205004 57 188 1.0 3.0 0.02 0.08 0.08 83 1011.1
20260509204504 57 187 1.0 3.0 0.02 0.08 0.08 83 1011.0
20260509204004 57 190 1.0 3.0 0.02 0.08 0.08 83 1011.0
20260509203503 57 192 1.0 3.0 0.02 0.08 0.08 83 1011.0
20260509203003 57 187 1.0 3.0 0.03 0.08 0.08 83 1011.0
20260509202503 57 189 2.0 6.0 0.03 0.08 0.08 82 1011.1
20260509202003 58 188 3.0 9.0 0.03 0.08 0.08 83 1011.4
20260509201503 58 187 2.0 7.0 0.02 0.07 0.07 83 1011.2
20260509201003 58 187 2.0 7.0 0.03 0.07 0.07 83 1011.4
20260509200502 58 186 1.0 3.0 0.03 0.07 0.07 83 1011.4
20260509200003 58 187 3.0 9.0 0.02 0.06 0.06 83 1011.4
20260509195502 58 186 1.0 5.0 0.03 0.06 0.06 83 1011.3
20260509195003 58 186 1.0 5.0 0.03 0.06 0.06 83 1011.3
20260509194503 59 186 1.0 3.0 0.03 0.06 0.06 83 1011.3
20260509194003 58 196 1.0 3.0 0.03 0.06 0.06 82 1011.3
20260509193503 58 187 1.0 3.0 0.03 0.06 0.06 81 1011.3
20260509193002 58 186 2.0 5.0 0.02 0.05 0.05 80 1011.3
20260509192003 58 190 1.0 3.0 0.03 0.05 0.05 79 1011.5
20260509191503 58 185 1.0 6.0 0.03 0.05 0.05 77 1011.6
20260509191003 59 189 1.0 3.0 0.03 0.04 0.04 77 1011.7
20260509190502 59 192 2.0 3.0 0.03 0.04 0.04 77 1011.6
20260509190003 59 206 1.0 3.0 0.03 0.04 0.04 77 1011.5
20260509185504 59 217 1.0 3.0 0.03 0.03 0.03 77 1011.4
20260509185004 59 218 2.0 7.0 0.03 0.03 0.03 77 1011.5
20260509184504 60 188 1.0 3.0 0.03 0.03 0.03 76 1011.6
20260509184003 60 203 1.0 3.0 0.03 0.03 0.03 76 1011.5
20260509183003 60 209 2.0 8.0 0.03 0.03 0.03 75 1011.4
20260509182504 60 246 2.0 5.0 0.02 0.02 0.02 74 1011.3
20260509182003 60 234 3.0 8.0 0.02 0.02 0.02 73 1011.1
20260509181503 60 186 1.0 3.0 0.02 0.02 0.02 72 1011.4
20260509181004 61 234 2.0 5.0 0.01 0.01 0.01 71 1011.3
20260509180004 62 218 3.0 8.0 0.01 0.01 0.01 70 1011.3
20260509175503 63 228 4.0 9.0 0.00 0.00 0.00 69 1011.3
20260509175003 64 243 3.0 9.0 0.00 0.00 0.00 67 1011.1
20260509174502 64 208 3.0 9.0 0.00 0.00 0.00 65 1010.9
20260509174003 65 229 5.0 12.0 0.00 0.00 0.00 63 1011.1
20260509173504 66 222 5.0 9.0 0.00 0.00 0.00 62 1011.1
20260509173003 66 236 7.0 10.0 0.00 0.00 0.00 61 1010.9
20260509172503 66 232 4.0 9.0 0.00 0.00 0.00 62 1010.8
20260509172003 66 176 2.0 5.0 0.00 0.00 0.00 63 1010.7
20260509171503 66 236 4.0 7.0 0.00 0.00 0.00 62 1010.9
20260509170503 66 247 2.0 7.0 0.00 0.00 0.00 64 1010.9
20260509170003 65 211 3.0 6.0 0.00 0.00 0.00 64 1011.0
20260509165004 64 206 2.0 5.0 0.00 0.00 0.00 66 1011.2
20260509164504 64 235 3.0 7.0 0.00 0.00 0.00 65 1011.4
20260509164003 64 233 2.0 5.0 0.00 0.00 0.00 65 1011.4
20260509163503 64 234 3.0 7.0 0.00 0.00 0.00 64 1011.5
20260509163003 65 223 2.0 5.0 0.00 0.00 0.00 64 1011.5
20260509162504 65 233 1.0 3.0 0.00 0.00 0.00 65 1011.5
20260509161504 65 253 3.0 3.0 0.00 0.00 0.00 64 1011.7
20260509155504 65 201 3.0 5.0 0.00 0.00 0.00 65 1011.8
20260509155003 65 224 1.0 3.0 0.00 0.00 0.00 64 1011.8
20260509154503 65 216 2.0 5.0 0.00 0.00 0.00 65 1011.9
20260509154003 65 233 3.0 5.0 0.00 0.00 0.00 65 1012.0
20260509153503 65 239 2.0 6.0 0.00 0.00 0.00 64 1012.0
20260509153003 65 227 3.0 7.0 0.00 0.00 0.00 64 1012.0
20260509152503 65 158 2.0 6.0 0.00 0.00 0.00 63 1012.0
20260509152004 65 202 2.0 7.0 0.00 0.00 0.00 64 1012.0